CW1988 Weather Reports


Display with metric or nautical units.
time (UTC)temp
F
wind
direction
speed
MPH
gust
MPH
rain 1hr
in
rain 24hr
in
rain mn
in
humidity
%
barometer
mb
20260904141317 68 139 0.0 0.0 0.00 0.21 0.21 99 1017.8
20260904140814 68 132 0.0 1.0 0.00 0.21 0.21 98 1017.5
20260904140308 68 130 0.0 0.0 0.00 0.21 0.21 98 1017.7
20260904135806 68 134 0.0 0.0 0.05 0.21 0.21 98 1017.8
20260904135305 68 144 0.0 0.0 0.24 0.21 0.21 98 1017.9
20260904134758 68 145 0.0 0.0 0.19 0.20 0.20 98 1017.8
20260904134257 68 138 0.0 1.0 0.54 0.17 0.17 98 1018.2
20260904133752 68 145 0.0 0.0 0.73 0.17 0.17 97 1018.6
20260904133248 68 128 0.0 1.0 0.31 0.09 0.09 95 1019.1
20260904132747 69 166 0.0 0.0 0.05 0.05 0.05 94 1018.8
20260904132243 69 132 0.0 0.0 0.00 0.04 0.04 93 1017.7
20260904131742 68 175 1.0 3.0 0.00 0.04 0.04 93 1017.5
20260904131238 68 165 1.0 2.0 0.00 0.04 0.04 96 1018.7
20260904130733 68 170 0.0 0.0 0.00 0.04 0.04 97 1018.2
20260904130232 68 132 0.0 0.0 0.00 0.04 0.04 97 1016.9
20260904125728 68 132 0.0 0.0 0.00 0.04 0.04 97 1016.4
20260904125223 68 137 0.0 0.0 0.00 0.04 0.04 97 1016.0
20260904124718 68 126 0.0 0.0 0.00 0.04 0.04 97 1016.2
20260904124214 68 144 0.0 0.0 0.00 0.04 0.04 97 1016.4
20260904123709 68 145 0.0 0.0 0.00 0.04 0.04 97 1016.6
20260904123204 68 135 0.0 1.0 0.00 0.04 0.04 97 1016.5
20260904122704 68 131 1.0 1.0 0.00 0.04 0.04 97 1016.4
20260904122159 68 134 0.0 1.0 0.00 0.04 0.04 97 1016.4
20260904121654 68 140 0.0 1.0 0.00 0.04 0.04 97 1016.6
20260904121149 68 118 1.0 1.0 0.00 0.04 0.04 97 1016.6
20260904120646 68 144 0.0 0.0 0.00 0.04 0.04 97 1016.5
20260904120142 68 129 0.0 0.0 0.00 0.04 0.04 97 1016.6
20260904115637 68 151 0.0 0.0 0.00 0.04 0.04 97 1016.4
20260904115131 68 116 2.0 3.0 0.00 0.04 0.04 97 1016.1
20260904114626 68 158 0.0 0.0 0.00 0.04 0.04 98 1016.2
20260904114120 68 139 1.0 2.0 0.00 0.04 0.04 98 1015.6
20260904113620 68 132 0.0 0.0 0.00 0.04 0.04 98 1015.7
20260904113120 68 133 0.0 0.0 0.00 0.04 0.04 98 1015.7
20260904112615 68 141 0.0 0.0 0.00 0.04 0.04 98 1015.4
20260904112111 68 128 0.0 0.0 0.00 0.04 0.04 98 1015.3
20260904111606 68 126 0.0 0.0 0.00 0.04 0.04 98 1015.2
20260904111102 68 126 0.0 0.0 0.00 0.04 0.04 98 1015.2
20260904110556 69 126 0.0 0.0 0.00 0.04 0.04 98 1015.1
20260904110052 69 126 0.0 0.0 0.00 0.04 0.04 98 1015.0
20260904105551 69 126 0.0 0.0 0.00 0.04 0.04 98 1014.9
20260904105046 69 126 0.0 0.0 0.00 0.04 0.04 98 1014.8
20260904104542 69 127 0.0 0.0 0.00 0.04 0.04 98 1014.9
20260904104037 69 127 0.0 0.0 0.00 0.04 0.04 98 1014.8
20260904103533 69 127 0.0 0.0 0.00 0.04 0.04 97 1014.7
20260904103029 69 127 0.0 0.0 0.00 0.04 0.04 97 1014.8
20260904102525 69 127 0.0 0.0 0.07 0.04 0.04 97 1014.8
20260904102020 69 132 0.0 0.0 0.07 0.04 0.04 97 1014.9
20260904101517 69 132 0.0 0.0 0.00 0.03 0.03 97 1014.9
20260904101012 70 133 0.0 0.0 0.00 0.03 0.03 96 1015.0
20260904100508 70 127 0.0 0.0 0.00 0.03 0.03 96 1015.2
20260904100008 70 138 0.0 0.0 0.00 0.03 0.03 96 1015.2
20260904095501 70 130 0.0 0.0 0.00 0.03 0.03 96 1015.1
20260904094956 70 130 0.0 0.0 0.00 0.03 0.03 96 1015.1
20260904094451 70 131 0.0 0.0 0.00 0.03 0.03 96 1014.9
20260904093947 70 129 0.0 0.0 0.00 0.03 0.03 96 1014.7
20260904093443 70 143 0.0 0.0 0.00 0.03 0.03 96 1015.0
20260904092938 70 140 0.0 0.0 0.00 0.03 0.03 96 1014.7
20260904092435 70 132 0.0 1.0 0.00 0.03 0.03 97 1014.8
20260904091930 70 137 1.0 1.0 0.00 0.03 0.03 97 1014.8
20260904091426 70 146 0.0 0.0 0.00 0.03 0.03 97 1015.2
20260904090915 71 137 0.0 0.0 0.00 0.03 0.03 98 1014.8
20260904090411 72 126 0.0 0.0 0.00 0.03 0.03 98 1014.9
20260904085906 72 125 0.0 0.0 0.00 0.03 0.03 98 1014.6
20260904085401 72 125 0.0 0.0 0.00 0.03 0.03 98 1014.1
20260904084855 72 125 0.0 0.0 0.05 0.03 0.03 98 1014.1
20260904084352 72 125 0.0 0.0 0.05 0.03 0.03 98 1013.9
20260904083847 72 125 0.0 0.0 0.00 0.02 0.02 98 1014.0
20260904083343 72 125 0.0 0.0 0.00 0.02 0.02 98 1013.9
20260904082839 72 125 0.0 0.0 0.00 0.02 0.02 98 1014.1
20260904082333 72 125 0.0 0.0 0.00 0.02 0.02 98 1014.0
20260904081829 72 125 0.0 0.0 0.00 0.02 0.02 98 1014.1
20260904081324 72 125 0.0 0.0 0.00 0.02 0.02 98 1013.8
20260904080820 72 125 0.0 0.0 0.00 0.02 0.02 97 1013.6
20260904080315 72 125 0.0 0.0 0.07 0.02 0.02 97 1013.7
20260904075812 72 125 0.0 0.0 0.00 0.01 0.01 97 1013.9
20260904075311 72 125 0.0 0.0 0.05 0.01 0.01 97 1014.0
20260904074810 72 125 0.0 0.0 0.05 0.01 0.01 96 1013.8
20260904074306 72 125 0.0 0.0 0.00 0.00 0.00 96 1014.1
20260904073801 72 125 0.0 0.0 0.00 0.00 0.00 96 1014.4
20260904073256 72 125 0.0 0.0 0.00 0.00 0.00 95 1014.1
20260904072753 72 125 0.0 0.0 0.00 0.00 0.00 95 1014.1
20260904072252 72 125 0.0 0.0 0.00 0.00 0.00 95 1014.4
20260904071748 72 125 0.0 0.0 0.00 0.00 0.00 96 1014.3
20260904071243 72 125 0.0 0.0 0.00 0.00 0.00 96 1014.3
20260904070738 72 125 1.0 1.0 0.00 0.00 0.00 96 1014.4
20260904070236 71 125 0.0 0.0 0.00 0.00 0.00 96 1014.4
20260904065731 71 125 0.0 0.0 0.00 0.00 0.00 96 1014.5
20260904065228 71 125 0.0 0.0 0.00 0.00 0.00 95 1014.3
20260904064728 72 125 0.0 0.0 0.00 0.00 0.00 95 1014.2
20260904064223 72 126 0.0 0.0 0.00 0.00 0.00 95 1014.7
20260904063719 72 126 0.0 0.0 0.00 0.00 0.00 95 1015.1
20260904063215 72 132 0.0 0.0 0.00 0.00 0.00 95 1015.0
20260904062711 72 132 0.0 0.0 0.00 0.00 0.00 95 1015.0
20260904062206 72 124 0.0 1.0 0.00 0.00 0.00 95 1015.0
20260904061702 72 121 1.0 2.0 0.00 0.00 0.00 94 1015.1
20260904061158 72 149 0.0 0.0 0.00 0.00 0.00 94 1015.0
20260904060654 72 149 0.0 0.0 0.00 0.00 0.00 94 1015.1
20260904060150 72 149 0.0 0.0 0.00 0.00 0.00 94 1015.2
20260904055644 72 150 0.0 0.0 0.00 0.00 0.00 95 1015.3
20260904055140 71 141 0.0 0.0 0.00 0.00 0.00 96 1015.4
20260904054636 71 129 0.0 0.0 0.00 0.00 0.00 97 1015.4
20260904054132 71 133 0.0 0.0 0.00 0.00 0.00 97 1015.3
20260904053632 71 148 0.0 0.0 0.00 0.00 0.00 98 1016.0
20260904053126 71 126 0.0 0.0 0.00 0.00 0.00 98 1016.0
20260904052623 71 126 0.0 0.0 0.00 0.00 0.00 98 1015.6
20260904052118 71 126 0.0 0.0 0.00 0.00 0.00 98 1015.4
20260904051614 71 126 0.0 0.0 0.00 0.00 0.00 98 1015.5
20260904051109 71 125 0.0 0.0 0.00 0.00 0.00 98 1015.4
20260904050605 71 125 0.0 0.0 0.00 0.00 0.00 98 1015.5
20260904045556 71 127 0.0 0.0 0.00 0.00 0.00 98 1015.6
20260904045056 71 127 0.0 0.0 0.00 0.00 0.00 98 1015.6
20260904044551 71 127 0.0 0.0 0.00 0.00 0.00 98 1015.0
20260904044048 71 127 0.0 0.0 0.00 0.00 0.00 98 1015.0
20260904043544 71 127 0.0 0.0 0.00 0.00 0.00 98 1015.2
20260904043039 71 127 0.0 0.0 0.00 0.00 0.00 98 1015.5
20260904042536 71 127 0.0 0.0 0.00 0.00 0.00 98 1015.8
20260904042031 71 127 0.0 0.0 0.00 0.00 0.00 98 1015.6
20260904041526 70 127 0.0 0.0 0.00 0.00 0.00 98 1015.3
20260904041022 70 127 0.0 0.0 0.00 0.00 0.00 98 1015.3
20260904040522 70 127 0.0 0.0 0.00 0.00 0.00 97 1015.5
20260904040020 70 127 0.0 0.0 0.00 0.38 0.38 97 1015.7
20260904035519 70 127 0.0 0.0 0.00 0.38 0.38 97 1015.8
20260904035018 70 127 0.0 0.0 0.00 0.38 0.38 97 1015.6
20260904034514 70 127 0.0 0.0 0.00 0.38 0.38 97 1015.6
20260904034009 70 127 0.0 0.0 0.00 0.38 0.38 97 1015.7
20260904033505 70 127 0.0 0.0 0.00 0.38 0.38 97 1015.6
20260904033002 70 127 0.0 0.0 0.00 0.38 0.38 97 1015.8
20260904032457 70 127 0.0 0.0 0.00 0.38 0.38 97 1016.0
20260904031956 70 127 0.0 0.0 0.00 0.38 0.38 96 1015.8
20260904031451 70 127 0.0 0.0 0.00 0.38 0.38 96 1016.0
20260904030947 70 127 0.0 0.0 0.00 0.38 0.38 96 1016.2
20260904030443 70 127 0.0 0.0 0.00 0.38 0.38 96 1015.8
20260904025937 70 127 0.0 0.0 0.00 0.38 0.38 96 1015.8
20260904025434 70 127 0.0 0.0 0.00 0.38 0.38 96 1015.7
20260904024933 70 127 0.0 0.0 0.00 0.38 0.38 95 1016.0
20260904024429 70 127 0.0 0.0 0.00 0.38 0.38 95 1015.6
20260904023925 71 127 0.0 0.0 0.00 0.38 0.38 95 1015.8
20260904023421 71 127 0.0 0.0 0.00 0.38 0.38 95 1015.7
20260904022920 71 127 0.0 0.0 0.00 0.38 0.38 95 1015.7
20260904022417 70 127 0.0 0.0 0.00 0.38 0.38 95 1015.5
20260904021913 70 127 0.0 0.0 0.00 0.38 0.38 95 1015.3
20260904021409 70 127 0.0 0.0 0.00 0.38 0.38 94 1015.4
20260904020903 70 127 0.0 0.0 0.00 0.38 0.38 94 1015.6
20260904020358 70 128 0.0 0.0 0.00 0.38 0.38 94 1015.4
20260904015857 71 127 0.0 0.0 0.00 0.38 0.38 94 1015.5
20260904015353 71 128 0.0 0.0 0.00 0.38 0.38 94 1015.5
20260904014846 71 127 0.0 0.0 0.00 0.38 0.38 94 1015.4
20260904014341 71 127 0.0 0.0 0.00 0.38 0.38 94 1015.3
20260904013837 71 127 0.0 0.0 0.00 0.38 0.38 93 1015.4
20260904013332 71 127 0.0 0.0 0.00 0.38 0.38 94 1015.3
20260904012822 71 127 0.0 0.0 0.00 0.38 0.38 94 1015.1
20260904012317 71 127 0.0 0.0 0.00 0.38 0.38 94 1015.4
20260904011816 71 127 0.0 0.0 0.00 0.38 0.38 93 1015.4
20260904011311 71 127 0.0 0.0 0.00 0.38 0.38 93 1015.2
20260904010811 71 127 0.0 0.0 0.00 0.38 0.38 93 1015.3
20260904010309 71 127 0.0 0.0 0.00 0.38 0.38 92 1015.0
20260904005808 71 127 0.0 0.0 0.00 0.38 0.38 92 1015.0
20260904005306 72 127 0.0 0.0 0.00 0.38 0.38 92 1015.0
20260904004759 72 127 0.0 0.0 0.00 0.38 0.38 92 1014.9
20260904004255 72 127 0.0 0.0 0.00 0.38 0.38 92 1014.7
20260904003750 72 127 0.0 0.0 0.00 0.38 0.38 92 1014.6
20260904003247 72 127 0.0 0.0 0.00 0.38 0.38 91 1014.8
20260904002742 73 127 0.0 0.0 0.00 0.38 0.38 91 1014.8
20260904002238 73 127 0.0 0.0 0.00 0.38 0.38 91 1014.7
20260904001732 73 127 0.0 0.0 0.00 0.38 0.38 90 1014.6
20260904001231 73 127 0.0 0.0 0.00 0.38 0.38 90 1014.7
20260904000726 73 129 0.0 0.0 0.00 0.38 0.38 89 1014.6
20260904000221 73 129 0.0 0.0 0.00 0.38 0.38 90 1014.8
20260903235716 74 129 0.0 0.0 0.00 0.38 0.38 90 1014.7
20260903235212 74 129 0.0 0.0 0.00 0.38 0.38 90 1014.6
20260903234706 74 129 0.0 0.0 0.00 0.38 0.38 89 1014.7
20260903234203 74 129 0.0 0.0 0.00 0.38 0.38 89 1014.8
20260903233658 74 130 0.0 0.0 0.00 0.38 0.38 90 1014.5
20260903233154 74 130 0.0 0.0 0.00 0.38 0.38 90 1014.7
20260903232652 74 130 0.0 0.0 0.00 0.38 0.38 90 1014.8
20260903232149 74 130 0.0 0.0 0.00 0.38 0.38 89 1014.5
20260903231648 74 129 0.0 0.0 0.00 0.38 0.38 88 1014.6
20260903231143 74 129 0.0 0.0 0.00 0.38 0.38 87 1014.7
20260903230639 75 129 0.0 0.0 0.00 0.38 0.38 87 1014.3
20260903230138 75 129 0.0 0.0 0.00 0.38 0.38 86 1014.4
20260903225635 75 145 0.0 1.0 0.00 0.38 0.38 85 1014.4
20260903225131 76 128 0.0 0.0 0.00 0.38 0.38 85 1014.3
20260903224627 77 129 0.0 0.0 0.00 0.38 0.38 87 1014.7
20260903224123 77 136 0.0 0.0 0.00 0.38 0.38 87 1014.7
20260903223624 77 130 0.0 0.0 0.00 0.38 0.38 88 1014.5
20260903223121 77 50 2.0 2.0 0.00 0.38 0.38 88 1014.5
20260903222617 77 124 0.0 0.0 0.00 0.38 0.38 89 1014.5
20260903222115 77 111 1.0 2.0 0.00 0.38 0.38 90 1014.4
20260903221611 77 135 0.0 0.0 0.00 0.38 0.38 91 1014.7
20260903221109 77 135 0.0 0.0 0.00 0.38 0.38 91 1014.6
20260903220608 77 135 0.0 0.0 0.00 0.38 0.38 91 1014.4
20260903215602 77 135 0.0 0.0 0.00 0.38 0.38 90 1014.6
20260903215101 77 135 0.0 0.0 0.00 0.38 0.38 90 1014.9
20260903214555 77 135 0.0 0.0 0.00 0.38 0.38 90 1014.7
20260903214050 77 135 0.0 0.0 0.00 0.38 0.38 90 1014.9
20260903213546 77 135 0.0 0.0 0.00 0.38 0.38 89 1014.8
20260903213041 77 135 0.0 0.0 0.00 0.38 0.38 89 1014.6
20260903212537 78 135 0.0 0.0 0.00 0.38 0.38 90 1014.6
20260903212032 78 136 0.0 0.0 0.00 0.38 0.38 90 1014.5
20260903211528 78 136 0.0 0.0 0.00 0.38 0.38 90 1014.3
20260903211024 78 132 0.0 0.0 0.00 0.38 0.38 91 1014.4
20260903210519 78 127 1.0 2.0 0.00 0.38 0.38 91 1014.5
20260903210015 78 137 0.0 0.0 0.00 0.38 0.38 91 1014.6
20260903205513 78 119 1.0 1.0 0.00 0.38 0.38 92 1014.6
20260903205008 77 131 0.0 0.0 0.00 0.38 0.38 93 1014.8
20260903204504 77 134 0.0 0.0 0.00 0.38 0.38 93 1014.7
20260903203959 77 135 0.0 0.0 0.00 0.38 0.38 93 1014.7
20260903203455 77 133 0.0 0.0 0.00 0.38 0.38 93 1015.1
20260903202954 76 129 0.0 0.0 0.00 0.38 0.38 94 1014.9
20260903202451 76 129 0.0 0.0 0.00 0.38 0.38 92 1015.1
20260903201950 76 129 0.0 0.0 0.00 0.38 0.38 93 1015.2
20260903201446 76 129 0.0 0.0 0.00 0.38 0.38 93 1014.9
20260903200944 76 129 0.0 0.0 0.00 0.38 0.38 93 1014.6
20260903200439 76 129 0.0 0.0 0.00 0.38 0.38 94 1014.8
20260903195929 76 129 0.0 0.0 0.00 0.38 0.38 94 1014.9
20260903195426 76 129 0.0 0.0 0.00 0.38 0.38 95 1014.6
20260903194925 76 129 0.0 0.0 0.00 0.38 0.38 95 1014.6
20260903194421 76 129 0.0 0.0 0.00 0.38 0.38 95 1014.6
20260903193916 76 129 0.0 0.0 0.00 0.38 0.38 93 1014.5
20260903193413 76 129 0.0 0.0 0.00 0.38 0.38 94 1014.5
20260903192907 76 129 0.0 0.0 0.00 0.38 0.38 93 1014.6
20260903192404 76 129 0.0 0.0 0.00 0.38 0.38 92 1014.6
20260903191900 76 129 0.0 0.0 0.00 0.38 0.38 93 1014.7
20260903191355 76 129 0.0 0.0 0.00 0.38 0.38 93 1014.7
20260903190855 76 129 0.0 0.0 0.00 0.38 0.38 93 1014.7
20260903190349 76 129 0.0 0.0 0.00 0.38 0.38 93 1014.8
20260903185844 76 129 0.0 0.0 0.00 0.38 0.38 95 1014.9
20260903185344 76 129 0.0 0.0 0.00 0.38 0.38 96 1015.3
20260903184840 76 129 1.0 2.0 0.00 0.38 0.38 96 1015.1
20260903184337 75 129 0.0 0.0 0.00 0.38 0.38 95 1014.7
20260903183831 75 129 0.0 0.0 0.00 0.38 0.38 95 1014.8
20260903183326 75 129 0.0 0.0 0.00 0.38 0.38 94 1014.6
20260903182819 75 129 0.0 0.0 0.00 0.38 0.38 96 1014.6
20260903182313 75 129 0.0 0.0 0.00 0.38 0.38 96 1014.8
20260903181808 75 130 0.0 0.0 0.00 0.38 0.38 97 1015.0
20260903181303 75 129 0.0 0.0 0.00 0.38 0.38 97 1015.1
20260903180757 74 129 0.0 0.0 0.00 0.38 0.38 97 1014.9
20260903180257 74 129 0.0 0.0 0.00 0.38 0.38 97 1015.5
20260903175756 74 129 0.0 0.0 0.00 0.38 0.38 98 1015.8
20260903175255 74 129 0.0 0.0 0.00 0.38 0.38 98 1016.1
20260903174754 74 129 0.0 0.0 0.00 0.38 0.38 98 1015.7
20260903174250 73 130 0.0 0.0 0.00 0.38 0.38 99 1015.1
20260903173745 72 129 0.0 0.0 0.00 0.38 0.38 99 1014.9
20260903173241 72 129 0.0 0.0 0.07 0.38 0.38 99 1015.1
20260903172736 72 129 0.0 0.0 0.07 0.38 0.38 98 1015.4
20260903172231 72 130 0.0 0.0 0.00 0.37 0.37 98 1015.2
20260903171726 72 130 0.0 0.0 0.00 0.37 0.37 99 1015.1
20260903171222 72 130 0.0 0.0 0.00 0.37 0.37 99 1015.4
20260903170720 71 130 0.0 0.0 0.00 0.37 0.37 98 1015.5
20260903170216 71 132 0.0 0.0 0.05 0.37 0.37 99 1015.7
20260903165714 71 132 0.0 0.0 0.05 0.37 0.37 98 1016.2
20260903165209 71 137 0.0 0.0 0.00 0.36 0.36 99 1016.5
20260903164703 71 129 0.0 0.0 0.00 0.36 0.36 99 1016.8
20260903164200 71 129 0.0 0.0 0.00 0.36 0.36 99 1016.9
20260903163659 70 130 0.0 0.0 0.00 0.36 0.36 99 1017.0
20260903163156 70 131 0.0 0.0 0.00 0.36 0.36 99 1017.2
20260903162651 70 131 0.0 0.0 0.07 0.36 0.36 99 1016.9
20260903162147 70 141 0.0 0.0 0.19 0.36 0.36 99 1017.0
20260903161643 70 141 0.0 0.0 0.17 0.35 0.35 99 1017.0
20260903161137 69 141 0.0 0.0 0.05 0.33 0.33 99 1016.8
20260903160632 69 141 0.0 0.0 0.07 0.32 0.32 99 1016.7
20260903160127 69 141 0.0 0.0 0.14 0.32 0.32 99 1016.8
20260903155625 69 142 0.0 0.0 0.07 0.31 0.31 98 1017.8
20260903155121 69 143 0.0 0.0 0.05 0.30 0.30 98 1017.9
20260903154617 69 143 0.0 0.0 0.12 0.30 0.30 98 1017.9
20260903154113 69 143 0.0 0.0 0.12 0.29 0.29 98 1017.2
20260903153608 69 143 0.0 0.0 0.05 0.28 0.28 98 1017.1
20260903153104 69 143 0.0 0.0 0.05 0.28 0.28 98 1017.1
20260903152559 69 144 0.0 0.0 0.07 0.27 0.27 98 1016.9
20260903152056 69 144 0.0 0.0 0.19 0.27 0.27 98 1016.5
20260903151555 68 144 0.0 0.0 0.17 0.26 0.26 98 1017.0
20260903151051 68 142 0.0 0.0 0.19 0.25 0.25 98 1017.5
20260903150549 68 141 0.0 0.0 0.07 0.23 0.23 98 1017.6
20260903150046 68 139 0.0 0.0 0.00 0.22 0.22 98 1017.6
20260903145540 68 139 0.0 0.0 0.00 0.22 0.22 98 1017.0
20260903145035 68 139 0.0 0.0 0.05 0.22 0.22 97 1016.7
20260903144534 68 139 0.0 0.0 0.47 0.22 0.22 97 1016.6
20260903144031 67 139 0.0 0.0 0.42 0.21 0.21 97 1016.6
20260903143526 67 133 0.0 0.0 0.00 0.14 0.14 96 1016.7
20260903143022 67 135 0.0 0.0 0.00 0.14 0.14 96 1016.9
20260903142517 67 140 0.0 0.0 0.00 0.14 0.14 96 1016.7
20260903142013 67 132 0.0 0.0 0.07 0.14 0.14 95 1016.6